Home   Weather   Fairfax   Past weeks

Flag for USA Past Weather in Fairfax, Virginia, USA — Yesterday and Last 2 Weeks

Now
39 °F

Scattered clouds.


Feels Like: 32 °F
Forecast: 35 / 48 °F
Wind: 12 mph from West

Location: Washington-Dulles International Airport

Current Time: Dec 3, 2016 at 8:58:03 am

Latest Report: Dec 3, 2016 at 7:52 am


Visibility: 10 mi

Pressure: 30.22 "Hg

Humidity: 62%

Dew Point: 27 °F

Location of FairfaxLocation

Past Weather in Fairfax — Graph

°F

Fairfax Temperature Yesterday

Maximum temperature yesterday: 51 °F (at 12:52 pm)
Minimum temperature yesterday: 41 °F (at 6:52 am)
Average temperature yesterday: 45 °F

High & Low Weather Summary for the Past Weeks

 TemperatureHumidityPressure
High72 °F (Nov 18, 2:52 pm)100% (Nov 29, 7:52 pm)30.38 "Hg (Nov 29, 7:52 pm)
Low23 °F (Nov 23, 3:52 am)26% (Nov 21, 1:52 pm)29.54 "Hg (Nov 30, 9:52 pm)
Average45 °F61%30.06 "Hg
* Reported Nov 18 6:52 am — Dec 3 6:52 am, Fairfax, Weather by CustomWeather, © 2016

Note: Actual official high and low records may vary slightly from our data, if they occured in-between our weather recording intervals... More about our weather records

Advertising

Fairfax Weather History for the Previous 24 Hours

Scroll right to see more
 ConditionsComfort  
Time TempWeatherWind HumidityBarometerVisibility
6:52 am
Sat, Dec 3
39 °FPassing clouds.7 mph62%30.20 "Hg10 mi
5:52 am39 °FPassing clouds.14 mph62%30.17 "Hg10 mi
4:52 am41 °FPassing clouds.13 mph58%30.16 "Hg10 mi
3:52 am42 °FOvercast.13 mph57%30.14 "Hg10 mi
2:52 am42 °FOvercast.18 mph57%30.14 "Hg10 mi
1:52 am42 °FPassing clouds.24 mph55%30.13 "Hg10 mi
11:52 pm
Fri, Dec 2
42 °FPassing clouds.22 mph51%30.12 "Hg10 mi
10:52 pm42 °FPassing clouds.14 mph51%30.11 "Hg10 mi
9:52 pm42 °FPassing clouds.13 mph51%30.11 "Hg10 mi
8:52 pm42 °FOvercast.10 mph55%30.13 "Hg10 mi
7:52 pm43 °FOvercast.12 mph53%30.12 "Hg10 mi
6:52 pm43 °FOvercast.15 mph56%30.12 "Hg10 mi
5:52 pm43 °FOvercast.16 mph56%30.09 "Hg10 mi
4:52 pm43 °FPassing clouds.18 mph56%30.07 "Hg10 mi
3:52 pm46 °FScattered clouds.14 mph51%30.06 "Hg10 mi
2:52 pm49 °FScattered clouds.14 mph46%30.04 "Hg10 mi
1:52 pm50 °FScattered clouds.15 mph44%30.03 "Hg10 mi
12:52 pm51 °FScattered clouds.18 mph41%30.03 "Hg10 mi
11:52 am50 °FScattered clouds.13 mph43%30.05 "Hg10 mi
10:52 am48 °FScattered clouds.15 mph46%30.07 "Hg10 mi
9:52 am47 °FBroken clouds.14 mph46%30.08 "Hg10 mi
8:52 am45 °FSunny.8 mph49%30.07 "Hg10 mi
Weather by CustomWeather, © 2016

See weather overviewHow to use our weather pages